Hourly Data Report for October 06, 2017

All times are specified in Local Standard Time (LST). Add 1 hour to adjust for Daylight Saving Time where and when it is observed.

HALL BEACH A
NUNAVUT

68°46'33.000" N
81°14'33.000" W
9.10 m
2402354
71293
YUX

Related Data

No related data is available for this station

Download Data

Hourly Data (October 2017)
Hourly Data Report for October 6, 2017
Temp Definition
°C
Dew Point Temp Definition
°C
Rel Hum Definition
%
Wind Dir Definition
10's deg

Wind Spd Definition
km/h
Visibility Definition
km
Stn Press Definition
kPa
Hmdx Definition


Wind Chill Definition


Weather Definition


TIME
00:00 Legend Double Dagger 0.0 -0.6 96 10 37 4.8 99.49   -7 Snow
01:00 Legend Double Dagger 0.0 -0.7 95 10 37 8.1 99.53   -7 Rain,Fog
02:00 Legend Double Dagger -0.1 -1.0 94 11 41 6.4 99.59   -8 Rain,Snow
03:00 Legend Double Dagger -0.1 -1.3 92 11 45 16.1 99.66   -8 LegendNANA
04:00 Legend Double Dagger -0.1 -1.3 92 11 30 16.1 99.72   -7 LegendNANA
05:00 Legend Double Dagger -0.2 -1.2 93 10 28 6.4 99.78   -7 Fog
06:00 Legend Double Dagger -0.4 -1.7 91 10 30 16.1 99.81   -7 LegendNANA
07:00 Legend Double Dagger -0.4 -2.0 89 8 30 16.1 99.85   -7 LegendNANA
08:00 Legend Double Dagger -0.6 -2.3 88 9 34 16.1 99.87   -8 LegendNANA
09:00 Legend Double Dagger -0.7 -2.7 86 9 37 16.1 99.89   -8 LegendNANA
10:00 Legend Double Dagger -0.6 -2.8 85 9 34 16.1 99.93   -8 LegendNANA
11:00 Legend Double Dagger -0.4 -2.8 84 8 32 16.1 99.93   -7 LegendNANA
12:00 Legend Double Dagger -0.4 -3.3 81 8 32 16.1 99.92   -7 LegendNANA
13:00 Legend Double Dagger -0.4 -3.4 80 7 28 16.1 99.96   -7 LegendNANA
14:00 Legend Double Dagger -0.4 -3.8 78 7 28 16.1 99.98   -7 LegendNANA
15:00 Legend Double Dagger -0.5 -3.5 80 6 22 16.1 99.99   -6 LegendNANA
16:00 Legend Double Dagger -0.8 -3.7 81 5 24 16.1 100.01   -7 LegendNANA
17:00 Legend Double Dagger -1.4 -3.2 88 4 21 16.1 100.03   -7 LegendNANA
18:00 Legend Double Dagger -1.6 -3.5 87 3 22 16.1 100.05   -8 LegendNANA
19:00 Legend Double Dagger -1.8 -3.7 87 2 28 16.1 100.06   -9 LegendNANA
20:00 Legend Double Dagger -2.3 -4.3 86 1 26 16.1 100.07   -9 LegendNANA
21:00 Legend Double Dagger -2.4 -4.3 87 1 26 16.1 100.06   -9 LegendNANA
22:00 Legend Double Dagger -2.5 -4.5 86 2 30 16.1 100.05   -10 LegendNANA
23:00 Legend Double Dagger -2.4 -4.9 83 2 32 16.1 100.05   -10 LegendNANA

Notes on Data Quality.

Legend

  • E = Estimated
  • M = Missing
  • NA = Not Available
  • ‡ = Partner data that is not subject to review by the National Climate Archives
Date modified: